[[{"header":{"parameterUnit":"m.s-1","parameterCategory":1,"la1":30.2991,"la2":30.254,"lo1":-89.0895,"lo2":-89.0444,"dy":0.0017,"dx":0.0017,"nx":28,"ny":28,"refTime":"2023-09-19T09:00:00:Z","depth":0,"parameterNumber":2,"parameterNumberName":"U-component_of_WINDS"},"data":[0,0,0,0,0,0,0,0,0,0,0,0,0,0,0,0,0,0,0,0,0,0,0,0,0,0,0,0,0,0,0,0,0,0,0,0,0,0,0,0,0,0,0,0,0,0,0,0,0,0,0,0,0,0,0,0,0,0,-7.4529,-7.4531,0,-7.474,-7.4743,-7.4745,-7.4588,-7.4582,-7.4575,-7.4568,-7.4786,-7.4798,-7.481,0,0,0,0,0,0,0,0,0,0,0,0,0,-7.3992,-7.4002,-7.4529,-7.4532,-7.4534,-7.474,-7.4743,-7.4746,-7.459,-7.4581,-7.4573,-7.4565,-7.4782,-7.4797,-7.4811,0,0,0,0,0,0,0,0,0,0,0,0,0,-7.4216,-7.4006,-7.4528,-7.4481,-7.4479,-7.4739,-7.4743,-7.4746,-7.4591,-7.4581,-7.4571,-7.4561,-7.4778,-7.4795,-7.4813,-7.5132,0,0,-7.4869,-7.4877,0,0,0,0,0,0,0,0,-7.4204,-7.4236,-7.4485,-7.4485,-7.4483,-7.4627,-7.4633,-7.4876,-7.4594,-7.4549,-7.4568,-7.4556,-7.4742,-7.4762,-7.4825,-7.5143,-7.5152,-7.4871,-7.4882,-7.489,-7.4895,0,0,0,0,0,0,0,-7.4189,-7.4226,-7.4612,-7.4489,-7.4488,-7.445,-7.447,-7.4679,-7.4701,-7.4552,-7.4541,-7.4568,-7.4739,-7.4808,-7.4829,-7.5155,-7.487,-7.4887,-7.4898,-7.4905,-7.5746,-7.5757,0,0,0,0,0,0,-7.4177,-7.4214,-7.4606,-7.4619,-7.4315,-7.4468,-7.4491,-7.4591,-7.4698,-7.4704,-7.4577,-7.456,-7.4781,-7.4808,-7.4836,-7.5216,-7.489,-7.4907,-7.4917,-7.5735,-7.5748,-7.5761,0,0,0,0,0,0,-7.4166,-7.4214,-7.4597,-7.4414,-7.446,-7.4488,-7.4602,-7.4601,-7.4669,-7.4717,-7.472,-7.4642,-7.4774,-7.481,-7.506,-7.5222,-7.4915,-7.4932,-7.5721,-7.5739,-7.5754,-7.598,0,0,0,0,0,0,-7.4152,-7.4211,-7.4332,-7.4418,-7.447,-7.4818,-7.4612,-7.4613,-7.4701,-7.4681,-7.4779,-7.4785,-7.4769,-7.5033,-7.5078,-7.5241,-7.4946,-7.5707,-7.5729,-7.5749,-7.5958,-7.6003,-7.6041,0,0,0,0,0,-7.4133,-7.4387,-7.4339,-7.4387,-7.4622,-7.4827,-7.4857,-7.4833,-7.4715,-7.4837,-7.4867,-7.4782,-7.5197,-7.506,-7.5109,-7.5281,-7.5696,-7.5723,-7.5747,-7.594,-7.5994,-7.604,0,0,0,0,0,0,-7.4319,-7.4397,-7.4345,-7.4634,-7.4726,-7.4801,-7.4954,-7.4891,-7.5018,-7.4994,-7.4959,-7.4982,-7.5245,-7.5287,-7.5134,-7.5595,-7.5428,-7.5465,-7.5557,-7.5609,-7.565,-7.5634,-7.4961,0,0,0,0,0,-7.4394,-7.4554,-7.4614,-7.4864,-7.4912,-7.4926,-7.5014,-7.4988,-7.5081,-7.5119,-7.5167,-7.5262,-7.5413,-7.5513,-7.5655,-7.5964,-7.5983,-7.6106,-7.6147,-7.6181,-7.6213,-7.6379,-7.6435,-7.5844,-7.5844,-7.5844,0,0,-7.4551,-7.4613,-7.4716,-7.4903,-7.497,-7.5137,-7.4959,-7.5143,-7.5267,-7.5147,-7.5385,-7.5425,-7.5528,-7.5809,-7.5935,-7.5852,-7.638,-7.6213,-7.624,-7.6254,-7.6411,-7.6467,-7.6517,-7.5862,-7.5859,-7.5856,0,0,-7.492,-7.4984,-7.5199,-7.527,-7.5375,-7.5382,-7.5434,-7.552,-7.5541,-7.578,-7.5694,-7.5841,-7.6102,-7.6179,-7.6253,-7.6653,-7.658,-7.6701,-7.6916,-7.7079,-7.7125,-7.7166,-7.7309,-7.7361,-7.6732,-7.6733,-7.6733,0,-7.5101,-7.5349,-7.5317,-7.5508,-7.5593,-7.5492,-7.571,-7.5781,-7.5927,-7.5988,-7.5894,-7.622,-7.6283,-7.658,-7.6678,-7.6741,-7.6799,-7.6689,-7.7121,-7.7162,-7.72,-7.7335,-7.7389,-7.6747,-7.6745,-7.6744,-7.6743,0,-7.5566,-7.5739,-7.5901,-7.6044,-7.6147,-7.6351,-7.6351,-7.6459,-7.6424,-7.6442,-7.6687,-7.6758,-7.6913,-7.6981,-7.6949,-7.7276,-7.7221,-7.7125,-7.6956,-7.727,-7.7397,-7.7449,-7.6767,-7.6762,-7.6758,-7.6754,0,0,-7.6058,-7.6182,-7.6242,-7.6306,-7.6415,-7.6548,-7.6748,-7.6898,-7.6992,-7.7097,-7.7263,-7.7488,-7.7399,-7.7483,-7.7459,-7.7602,-7.7915,-7.7488,-7.749,-7.7565,-7.8279,-7.835,-7.8411,-7.7867,-7.7877,-7.7885,-7.827,0,-7.6433,-7.678,-7.6758,-7.7084,-7.7244,-7.7151,-7.7325,-7.7411,-7.7433,-7.7573,-7.7597,-7.7757,-7.7628,-7.7678,-7.7816,-7.7848,-7.8058,-7.782,-7.8022,-7.8029,-7.7998,-7.8477,-7.8553,-7.8913,-7.8319,-7.8328,-7.8334,0,-7.6916,-7.7037,-7.738,-7.7465,-7.7531,-7.7688,-7.7825,-7.7959,-7.8055,-7.8061,-7.8156,-7.8108,-7.831,-7.8137,-7.8415,-7.8253,-7.8335,-7.8364,-7.8377,-7.8394,-7.82,-7.8507,-7.9027,-7.9081,-7.8412,-7.8406,-7.84,0,-7.724,-7.7489,-7.7726,-7.7784,-7.789,-7.8002,-7.8051,-7.8137,-7.8229,-7.8349,-7.8409,-7.8552,-7.863,-7.8742,-7.8734,-7.8608,-7.9017,-7.8843,-7.9027,-7.9028,-7.9117,-7.9111,-7.9657,-7.9171,-7.917,-7.9169,-7.9168,0,-7.7661,-7.7874,-7.7873,-7.8019,-7.8255,-7.8229,-7.8464,-7.8501,-7.8578,-7.873,-7.8659,-7.8803,-7.8784,-7.8929,-7.8924,-7.9155,-7.9191,-7.9202,-7.9198,-7.9209,-7.9207,-7.9261,-7.9235,-7.9184,-7.9181,-7.9178,-7.9175,0,-7.8063,-7.8071,-7.8323,-7.8402,-7.8427,-7.8598,-7.8666,-7.8805,-7.8821,-7.9014,-7.9058,-7.9085,-7.9252,-7.9255,-7.9447,-7.9444,-7.9726,-7.9694,-7.9694,-7.9687,-7.9872,-7.9854,-8.047,-8.055,-8.0014,-8.0019,-8.0023,0,-7.833,-7.8492,-7.8589,-7.8685,-7.8741,-7.8898,-7.8991,-7.8972,-7.9073,-7.9195,-7.9319,-7.948,-7.9607,-7.9878,-7.9915,-8.0062,-8.0032,-8.0238,-8.0054,-8.0059,-8.0035,-8.0025,-8.0041,-8.0274,-8.028,-8.0285,-8.0289,0,-7.8803,-7.88,-7.8938,-7.9079,-7.9193,-7.9303,-7.9404,-7.9487,-7.948,-7.9597,-7.9767,-7.9866,-8.0061,-8.0222,-8.0364,-8.0414,-8.0352,-8.0347,-8.0397,-8.0409,-8.0401,-8.0407,-7.9791,-8.0333,-8.0328,-8.0325,-8.0323,-8.0321,-7.9146,-7.9285,-7.9375,-7.9532,-7.9606,-7.9703,-7.9837,-7.9871,-8.0012,-8.0169,-8.015,-8.0339,-8.0432,-8.0616,-8.0679,-8.0827,-8.0756,-8.0829,-8.0847,-8.0865,-8.0885,-8.0379,-8.0853,-8.0852,-8.0851,-8.085,-8.0849,0,-7.9615,-7.9668,-7.9813,-7.9957,-8.0081,-8.0011,-8.012,-8.0227,-8.0395,-8.0486,-8.0613,-8.0809,-8.0964,-8.1014,-8.1164,-8.1273,-8.1248,-8.1314,-8.1305,-8.1318,-8.0941,-8.0882,-8.1331,-8.1331,-8.1331,-8.1331,-8.1331,-8.1331,-7.9873,-8.0105,-8.0113,-8.0382,-8.0434,-8.0618,-8.0687,-8.0776,-8.0849,-8.107,-8.1199,-8.123,-8.1305,-8.1461,-8.1601,-8.1611,-8.167,-8.1747,-8.1746,-8.1393,-8.1344,-8.1298,-8.1242,-8.176,-8.1761,-8.211,-8.2113,-8.2116]},{"header":{"parameterUnit":"m.s-1","parameterCategory":1,"la1":30.2991,"la2":30.254,"lo1":-89.0895,"lo2":-89.0444,"dy":0.0017,"dx":0.0017,"nx":28,"ny":28,"refTime":"2023-09-19T09:00:00:Z","depth":0,"parameterNumber":3,"parameterNumberName":"V-component_of_WINDS"},"data":[0,0,0,0,0,0,0,0,0,0,0,0,0,0,0,0,0,0,0,0,0,0,0,0,0,0,0,0,0,0,0,0,0,0,0,0,0,0,0,0,0,0,0,0,0,0,0,0,0,0,0,0,0,0,0,0,0,0,-2.208,-2.2077,0,-2.186,-2.1858,-2.1855,-2.1763,-2.1764,-2.1764,-2.1764,-2.1533,-2.1526,-2.152,0,0,0,0,0,0,0,0,0,0,0,0,0,-2.2408,-2.2403,-2.208,-2.2077,-2.2074,-2.1861,-2.1858,-2.1855,-2.1763,-2.1764,-2.1764,-2.1765,-2.1535,-2.1527,-2.1519,0,0,0,0,0,0,0,0,0,0,0,0,0,-2.2235,-2.2401,-2.208,-2.2003,-2.1994,-2.1861,-2.1858,-2.1854,-2.1763,-2.1764,-2.1764,-2.1765,-2.1537,-2.1528,-2.1518,-2.1444,0,0,-2.1488,-2.1483,0,0,0,0,0,0,0,0,-2.2245,-2.2223,-2.2017,-2.2008,-2.1998,-2.184,-2.1888,-2.1716,-2.1763,-2.1851,-2.1765,-2.1765,-2.1634,-2.1616,-2.1573,-2.1433,-2.1423,-2.1487,-2.1481,-2.1477,-2.1474,0,0,0,0,0,0,0,-2.2257,-2.2232,-2.1993,-2.2014,-2.2002,-2.1976,-2.1952,-2.1855,-2.1741,-2.1843,-2.1836,-2.1811,-2.1629,-2.1583,-2.1567,-2.1419,-2.1487,-2.1478,-2.1472,-2.1468,-2.1199,-2.1198,0,0,0,0,0,0,-2.2283,-2.2243,-2.2,-2.1986,-2.2126,-2.1969,-2.1943,-2.189,-2.1742,-2.172,-2.1811,-2.1808,-2.16,-2.1579,-2.1559,-2.1457,-2.1477,-2.1467,-2.1462,-2.12,-2.1199,-2.1197,0,0,0,0,0,0,-2.2291,-2.2262,-2.2009,-2.2112,-2.2078,-2.1963,-2.1904,-2.1885,-2.184,-2.1718,-2.1696,-2.1786,-2.1599,-2.1572,-2.1472,-2.1448,-2.1463,-2.1454,-2.1202,-2.12,-2.1198,-2.1256,0,0,0,0,0,0,-2.23,-2.2266,-2.2239,-2.2113,-2.2073,-2.1929,-2.1903,-2.188,-2.1824,-2.1817,-2.1689,-2.1668,-2.1598,-2.1487,-2.1462,-2.1434,-2.1446,-2.1203,-2.1201,-2.1199,-2.1256,-2.1257,-2.1257,0,0,0,0,0,-2.2313,-2.2265,-2.2239,-2.221,-2.2038,-2.1928,-2.1905,-2.1827,-2.1822,-2.1792,-2.1713,-2.1672,-2.1455,-2.1478,-2.1448,-2.1418,-2.1204,-2.1201,-2.1199,-2.1256,-2.1257,-2.1257,0,0,0,0,0,0,-2.2391,-2.2247,-2.2216,-2.2127,-2.204,-2.1913,-2.1873,-2.1832,-2.1744,-2.1741,-2.1646,-2.1618,-2.1524,-2.1461,-2.1488,-2.1334,-2.1326,-2.1317,-2.1379,-2.1379,-2.138,-2.1395,-2.1438,0,0,0,0,0,-2.2398,-2.2324,-2.2201,-2.2133,-2.2091,-2.199,-2.1939,-2.1886,-2.1792,-2.1755,-2.1668,-2.1576,-2.1486,-2.1429,-2.1341,-2.1247,-2.1214,-2.121,-2.1211,-2.1212,-2.1205,-2.1144,-2.114,-2.1188,-2.1188,-2.1188,0,0,-2.2411,-2.2323,-2.2282,-2.2146,-2.2073,-2.1994,-2.196,-2.1879,-2.1818,-2.1742,-2.1641,-2.1574,-2.1464,-2.1365,-2.1317,-2.1309,-2.1184,-2.1209,-2.1211,-2.1202,-2.1141,-2.1136,-2.1132,-2.1186,-2.1187,-2.1187,0,0,-2.2394,-2.2323,-2.2256,-2.2183,-2.2072,-2.2004,-2.1988,-2.1866,-2.1818,-2.1716,-2.1655,-2.1579,-2.1429,-2.1351,-2.1292,-2.124,-2.1196,-2.1213,-2.1216,-2.1158,-2.1154,-2.115,-2.1126,-2.112,-2.1207,-2.1207,-2.1207,0,-2.2424,-2.2306,-2.2226,-2.2147,-2.2086,-2.2014,-2.1943,-2.1875,-2.1741,-2.1698,-2.1693,-2.1498,-2.1419,-2.1298,-2.1285,-2.1241,-2.1215,-2.1227,-2.1162,-2.1157,-2.1152,-2.1128,-2.112,-2.121,-2.1209,-2.1209,-2.1209,0,-2.2345,-2.2264,-2.2222,-2.2095,-2.2029,-2.1955,-2.1859,-2.1802,-2.1754,-2.1685,-2.1577,-2.148,-2.1368,-2.1335,-2.1288,-2.1205,-2.1203,-2.1181,-2.117,-2.1151,-2.1127,-2.1117,-2.1213,-2.1212,-2.1212,-2.1211,0,0,-2.2374,-2.22,-2.2186,-2.2125,-2.1995,-2.1929,-2.1848,-2.1739,-2.1689,-2.1598,-2.1524,-2.1396,-2.1372,-2.1305,-2.1247,-2.1197,-2.1154,-2.1179,-2.1175,-2.1174,-2.1051,-2.1066,-2.1058,-2.1126,-2.1124,-2.1122,-2.1058,0,-2.2337,-2.2193,-2.2115,-2.2001,-2.1921,-2.1849,-2.1777,-2.1687,-2.162,-2.1539,-2.1462,-2.1371,-2.135,-2.1308,-2.1255,-2.1172,-2.1128,-2.1175,-2.1051,-2.1048,-2.1079,-2.1046,-2.1063,-2.1008,-2.1049,-2.1047,-2.1046,0,-2.2276,-2.2185,-2.2064,-2.1938,-2.1901,-2.1839,-2.1729,-2.1655,-2.1549,-2.1502,-2.1425,-2.1367,-2.1274,-2.1271,-2.1138,-2.1171,-2.1115,-2.1066,-2.1062,-2.1045,-2.1045,-2.1024,-2.0989,-2.0979,-2.1032,-2.1033,-2.1034,0,-2.2304,-2.2151,-2.2057,-2.2007,-2.186,-2.1816,-2.1752,-2.1647,-2.1585,-2.1488,-2.1445,-2.1338,-2.1279,-2.1196,-2.1108,-2.1115,-2.0981,-2.0973,-2.0935,-2.0937,-2.0909,-2.0912,-2.0861,-2.0879,-2.0879,-2.088,-2.088,0,-2.227,-2.2197,-2.2067,-2.2009,-2.1923,-2.1832,-2.1748,-2.1678,-2.1584,-2.1507,-2.1438,-2.1366,-2.1257,-2.117,-2.1101,-2.0997,-2.0972,-2.0928,-2.091,-2.0933,-2.0938,-2.0893,-2.0893,-2.0877,-2.0878,-2.0878,-2.0879,0,-2.2287,-2.2198,-2.2089,-2.1957,-2.1921,-2.1863,-2.1748,-2.1686,-2.1613,-2.1516,-2.1488,-2.1373,-2.1266,-2.1171,-2.1031,-2.0983,-2.0876,-2.0856,-2.0913,-2.0902,-2.0869,-2.0872,-2.0785,-2.0766,-2.0801,-2.0801,-2.0801,0,-2.227,-2.2212,-2.2072,-2.2017,-2.1954,-2.1865,-2.18,-2.1707,-2.1641,-2.1512,-2.1464,-2.1353,-2.1259,-2.1092,-2.0993,-2.0883,-2.0857,-2.0834,-2.084,-2.0862,-2.0851,-2.0854,-2.0845,-2.0834,-2.0834,-2.0834,-2.0834,0,-2.2248,-2.2205,-2.2115,-2.2008,-2.1932,-2.1843,-2.1752,-2.1709,-2.1597,-2.1526,-2.1417,-2.1344,-2.1198,-2.1087,-2.0965,-2.0894,-2.0843,-2.0833,-2.0817,-2.0839,-2.0872,-2.0849,-2.091,-2.0835,-2.0835,-2.0835,-2.0835,-2.0835,-2.2244,-2.2187,-2.2078,-2.1979,-2.1899,-2.1814,-2.1748,-2.1665,-2.1573,-2.1449,-2.1398,-2.1285,-2.1174,-2.1005,-2.0933,-2.0841,-2.0831,-2.0811,-2.0805,-2.08,-2.0802,-2.0889,-2.0819,-2.0818,-2.0818,-2.0818,-2.0818,0,-2.2214,-2.214,-2.2049,-2.1923,-2.1842,-2.1804,-2.1698,-2.1633,-2.1535,-2.1437,-2.1344,-2.1215,-2.1105,-2.0996,-2.0879,-2.0825,-2.0798,-2.0797,-2.0798,-2.0781,-2.0819,-2.0842,-2.082,-2.082,-2.082,-2.082,-2.082,-2.082,-2.219,-2.2089,-2.2032,-2.1889,-2.1813,-2.1704,-2.1646,-2.1564,-2.1484,-2.1344,-2.1252,-2.1182,-2.1077,-2.095,-2.0845,-2.0815,-2.0773,-2.0778,-2.0741,-2.0778,-2.0779,-2.078,-2.0801,-2.077,-2.077,-2.071,-2.0709,-2.0709]}]]